Location: Mentone
(34.5413°N, 85.5351°W)
Time: 12:38:15
(UTC-05:00)

S-56A Canister/Altair - Visible Passes

Search period start: 23 April 2018 00:00
Search period end: 03 May 2018 00:00
Orbit: 632 x 2501 km, 38.9° (Epoch: 22 April)

Date Brightness Start Highest point End Pass type
(mag) Time Alt. Az. Time Alt. Az. Time Alt. Az.
23 Apr 10.3 02:57:22 32° SSE 03:01:20 38° SE 03:14:22 10° ENE visible
23 Apr 10.1 04:54:48 16° WSW 05:06:56 80° SSE 05:22:03 10° ENE visible
24 Apr 10.4 02:26:25 31° SE 02:28:17 32° SE 02:40:27 10° ENE visible
24 Apr 10.0 04:23:50 24° SW 04:33:27 75° SSE 04:48:38 10° ENE visible
25 Apr 10.6 01:55:24 28° SE 01:55:24 28° SE 02:06:22 10° E visible
25 Apr 9.9 03:52:49 33° SW 04:00:02 70° SSE 04:15:08 10° ENE visible
26 Apr 10.8 01:24:20 22° ESE 01:24:20 22° ESE 01:32:06 10° E visible
26 Apr 9.8 03:21:45 43° SSW 03:26:41 64° SE 03:41:32 10° ENE visible
26 Apr 10.1 05:19:41 10° WSW 05:33:36 81° NNW 05:48:47 10° ENE visible
27 Apr 11.0 00:53:13 16° ESE 00:53:13 16° ESE 00:57:32 10° E visible
27 Apr 9.7 02:50:38 50° S 02:53:27 58° SE 03:07:52 10° ENE visible
27 Apr 10.0 04:48:02 15° WSW 04:59:58 83° NNW 05:15:21 10° ENE visible
28 Apr 11.3 00:22:03 11° E 00:22:03 11° E 00:22:28 10° E visible
28 Apr 9.7 02:19:27 51° SSE 02:20:19 52° SE 02:34:08 10° ENE visible
28 Apr 9.9 04:16:52 23° WSW 04:26:24 86° NNW 04:41:49 10° ENE visible
29 Apr 9.9 01:48:15 45° SE 01:48:15 45° SE 02:00:19 10° ENE visible
29 Apr 9.8 03:45:39 33° WSW 03:52:54 90° SE 04:08:15 10° ENE visible
30 Apr 10.2 01:17:00 36° ESE 01:17:00 36° ESE 01:26:26 10° ENE visible
30 Apr 9.6 03:14:24 45° WSW 03:19:28 86° SSE 03:34:37 10° ENE visible
30 Apr 10.2 05:13:30 10° W 05:27:02 74° N 05:42:18 10° E visible
01 May 10.5 00:45:43 27° E 00:45:43 27° E 00:52:28 10° ENE visible
01 May 9.4 02:43:07 59° SW 02:46:10 81° SSE 03:00:55 10° ENE visible
01 May 10.1 04:40:31 10° W 04:53:24 75° N 05:08:45 10° E visible
02 May 10.8 00:14:26 19° E 00:14:26 19° E 00:18:26 10° E visible
02 May 9.2 02:11:49 71° SSW 02:12:56 75° SSE 02:27:12 10° ENE visible
02 May 10.0 04:09:11 17° W 04:19:47 76° N 04:35:09 10° E visible
02 May 11.1 23:43:05 12° E 23:43:05 12° E 23:44:15 10° E visible
